Wind_Speed
12 13 13 13 14 15 15 15 15 16 16 17 17 17 18 18 18 17 17 17 18 18 18 18 18 18 18 18 19 19 19 20 20 20 21 20 21 22
14 14 14 14 15 15 16 16 17 17 16 17 18 19 19 19 19 18 18 17 17 18 18 19 19 19 19 20 20 20 20 20 20 20 20 21 21 21
16 16 16 16 16 16 17 17 18 19 19 18 19 19 19 19 20 20 20 19 19 18 18 19 19 19 20 20 21 21 20 21 21 21 21 21 21 22
17 17 17 17 17 17 18 19 19 20 21 20 20 20 21 21 21 21 21 21 20 20 20 19 19 19 19 20 20 21 21 21 21 22 22 22 22 22
17 16 17 18 18 19 19 20 21 21 21 22 22 22 22 22 22 22 22 22 22 20 20 20 19 19 20 20 20 21 22 22 22 22 23 23 23 23
18 18 19 19 20 20 21 22 22 23 23 23 22 22 22 23 22 22 23 23 22 22 20 20 21 20 20 21 21 21 21 22 22 22 22 23 24 24
19 20 20 21 22 22 23 23 24 24 24 23 23 24 23 24 23 23 23 23 23 22 22 21 21 21 21 21 21 21 21 22 22 22 22 23 24 25
21 21 22 23 23 23 24 25 25 24 24 23 24 24 24 25 25 24 24 23 23 22 23 22 22 22 22 22 22 23 23 24 24 24 23 23 24 24
22 22 22 23 24 24 25 25 25 24 23 23 24 24 24 24 24 24 23 23 22 22 23 23 23 22 23 23 24 24 24 25 25 26 25 24 24 23
23 23 23 23 24 24 24 25 25 24 23 24 24 24 24 24 24 23 23 23 23 23 23 23 23 23 24 24 24 25 25 25 25 26 26 25 25 25
24 25 25 24 24 24 24 24 24 23 23 23 23 23 24 23 23 23 23 22 22 23 23 23 23 24 24 25 25 25 25 25 25 25 25 26 26 26
26 26 25 25 25 25 24 24 23 23 23 23 24 24 24 24 24 24 23 22 22 22 23 24 23 23 23 24 25 25 25 25 26 25 26 26 26 26
26 26 25 25 24 22 22 22 22 22 23 23 23 24 24 24 24 24 23 23 23 23 23 23 24 24 25 25 25 26 26 26 26 26 26 27 27 27
25 26 25 24 22 21 21 21 22 23 23 23 23 23 23 23 23 23 24 23 23 24 24 24 23 24 25 26 25 26 26 26 26 27 27 28 27 27
26 26 25 23 22 21 21 22 23 23 23 23 23 23 24 23 23 23 23 24 24 24 24 24 24 24 25 25 26 25 25 25 26 26 27 27 28 28
26 25 24 23 22 22 22 22 23 23 24 24 24 24 25 24 24 24 24 24 24 23 24 24 24 24 24 25 25 26 26 26 26 27 28 28 27 27
25 25 24 23 23 23 23 23 24 25 25 25 25 25 25 25 25 24 24 25 25 24 24 24 25 24 24 24 25 25 25 26 27 27 27 28 27 27
26 26 25 25 25 24 24 24 25 25 25 25 25 25 25 25 25 24 24 25 25 25 24 25 25 24 24 24 25 25 24 25 26 27 28 27 28 28
27 26 25 24 24 24 24 24 25 25 25 25 25 25 26 25 24 24 24 24 25 25 24 25 25 24 24 24 24 25 24 24 25 26 27 26 26 26
27 25 24 24 24 24 24 24 25 26 26 26 26 26 26 25 24 24 24 25 25 26 26 26 25 25 25 24 24 24 24 24 24 25 25 25 24 25
26 25 24 24 23 23 24 25 25 26 26 26 26 26 26 25 25 25 25 25 25 26 26 26 26 26 26 26 25 24 24 24 24 24 24 24 24 24
24 24 23 23 23 24 25 25 26 26 26 26 26 27 26 26 26 25 25 26 26 26 26 26 26 26 26 26 25 25 24 24 24 24 24 24 23 23
25 24 24 24 24 25 25 26 26 26 26 26 26 27 27 26 26 26 26 26 26 26 26 26 26 25 25 25 24 24 24 24 24 23 24 23 23 23
Wind_Direction
299 300 302 303 302 300 299 297 296 296 296 294 293 294 294 293 295 295 294 290 285 284 282 276 272 271 272 272 272 272 272 271 270 270 269 269 269 268
298 297 299 299 300 300 298 297 297 298 297 295 294 294 296 294 294 294 294 290 290 286 282 278 275 273 273 274 271 272 271 270 269 270 270 269 270 269
294 294 295 297 298 297 298 298 298 298 296 294 293 294 294 294 292 293 294 293 289 286 282 278 276 275 274 274 271 270 270 270 271 270 270 270 271 272
293 293 294 295 297 297 298 298 298 297 295 293 292 292 291 291 291 291 292 291 289 287 285 281 277 277 277 274 272 271 270 272 273 271 271 271 272 271
293 293 294 295 296 295 296 297 297 297 295 292 290 291 291 291 291 290 291 290 287 285 284 280 279 276 278 276 274 272 271 271 272 271 270 270 271 271
294 294 295 296 296 295 295 295 295 295 294 293 291 290 290 290 290 289 290 290 288 285 286 283 279 275 276 276 274 273 272 272 271 271 271 270 271 272
293 293 295 296 295 294 294 294 294 294 294 292 291 290 289 288 288 288 288 288 287 286 285 285 281 277 275 276 275 273 274 274 273 273 273 272 272 272
293 292 294 295 296 297 295 295 294 294 293 292 292 291 289 288 287 286 287 286 285 283 282 282 282 279 276 275 275 275 275 275 274 273 273 272 272 272
291 290 293 296 296 297 296 297 297 296 293 293 293 292 289 288 286 286 286 284 283 282 283 282 281 281 277 274 273 274 273 273 273 273 273 273 273 272
291 290 292 295 297 300 301 299 297 296 295 294 293 292 290 289 287 286 285 284 282 282 283 282 281 281 279 276 273 272 274 274 272 271 271 271 271 270
291 291 291 294 295 298 300 299 296 295 297 296 294 292 291 289 289 288 287 285 283 282 282 282 282 282 280 278 276 274 273 273 273 271 270 269 269 268
290 292 292 293 294 295 298 300 298 297 297 295 294 293 291 289 288 287 287 286 284 283 282 282 283 281 279 278 277 275 274 273 272 271 269 269 269 268
290 291 292 294 295 295 297 300 301 300 299 296 295 293 292 289 287 285 285 285 285 284 283 284 283 282 280 279 279 279 276 273 273 272 271 270 269 268
294 292 291 292 294 296 299 302 302 301 300 299 296 295 294 292 290 287 286 285 285 285 284 283 283 284 282 280 279 280 277 274 274 273 271 271 270 269
295 293 292 293 297 296 297 299 300 301 301 300 298 296 295 294 292 290 288 287 286 285 283 284 284 285 285 282 281 281 279 275 273 273 271 271 271 270
293 294 292 292 295 295 296 297 298 298 299 298 298 296 295 294 291 289 288 287 286 285 284 284 284 285 286 286 284 282 279 276 275 273 272 270 270 270
294 295 294 293 295 294 294 295 295 295 296 297 298 298 297 294 290 287 287 287 286 286 285 285 285 285 286 288 288 286 281 277 275 274 273 271 270 269
296 294 292 293 294 296 295 295 295 295 295 297 297 297 296 295 292 288 287 287 287 286 285 285 286 286 286 287 287 286 283 279 278 276 276 273 271 269
295 293 292 292 292 293 295 296 295 295 294 296 297 297 297 295 294 291 288 287 287 286 286 287 288 288 288 288 287 287 285 282 281 281 277 273 271 269
294 292 291 291 292 292 294 295 295 295 295 296 297 298 298 297 295 293 291 289 288 287 286 286 287 288 288 288 288 288 288 285 283 283 279 274 273 271
291 290 290 291 291 291 293 294 295 296 296 297 298 298 297 296 295 294 293 291 289 288 287 286 287 288 288 289 288 287 288 287 285 283 281 278 277 275
289 289 290 290 290 291 292 294 296 297 297 297 297 297 297 295 295 294 292 292 290 290 288 286 287 289 290 290 289 287 286 286 284 282 281 280 278 277
287 288 289 289 290 291 292 293 295 297 298 298 297 297 296 295 294 294 293 292 290 289 288 287 288 290 291 290 288 286 285 284 283 282 280 279 278 277
Height
5879 5878 5877 5876 5874 5872 5871 5869 5868 5866 5865 5862 5860 5859 5857 5855 5853 5852 5850 5848 5847 5845 5844 5843 5842 5842 5841 5841 5840 5840 5839 5839 5839 5839 5839 5839 5839 5838
5875 5874 5873 5871 5869 5868 5866 5864 5863 5861 5859 5858 5856 5854 5852 5850 5848 5847 5845 5843 5841 5840 5839 5837 5837 5836 5835 5835 5834 5834 5833 5833 5833 5833 5833 5832 5832 5832
5871 5870 5868 5866 5865 5863 5861 5860 5858 5856 5854 5852 5850 5849 5847 5845 5843 5841 5840 5838 5836 5834 5833 5832 5831 5830 5829 5829 5828 5828 5827 5827 5827 5827 5827 5826 5826 5826
5866 5865 5863 5861 5860 5858 5856 5854 5852 5850 5848 5846 5844 5843 5841 5839 5837 5835 5834 5832 5830 5829 5828 5826 5825 5824 5823 5823 5822 5822 5821 5821 5821 5821 5821 5821 5820 5819
5861 5859 5858 5856 5855 5853 5851 5848 5846 5844 5842 5840 5838 5836 5834 5832 5830 5828 5827 5825 5824 5822 5821 5820 5819 5818 5817 5817 5816 5815 5815 5815 5815 5814 5814 5814 5813 5813
5856 5854 5852 5851 5849 5847 5845 5842 5840 5838 5836 5834 5832 5830 5828 5825 5824 5822 5820 5819 5817 5816 5815 5814 5813 5812 5811 5811 5810 5809 5809 5808 5808 5808 5807 5807 5807 5806
5850 5849 5847 5845 5842 5840 5838 5836 5833 5831 5829 5827 5825 5823 5821 5819 5817 5815 5814 5812 5811 5810 5809 5808 5807 5806 5805 5804 5803 5803 5802 5802 5801 5801 5801 5800 5800 5799
5844 5842 5840 5838 5836 5834 5831 5829 5826 5824 5822 5820 5818 5816 5814 5812 5811 5809 5807 5806 5805 5804 5802 5801 5800 5799 5798 5797 5797 5796 5796 5795 5794 5794 5794 5793 5793 5792
5838 5836 5834 5832 5829 5827 5824 5822 5819 5816 5815 5813 5811 5809 5807 5805 5804 5802 5800 5799 5798 5797 5796 5794 5793 5792 5791 5790 5789 5789 5788 5788 5787 5787 5786 5786 5786 5785
5831 5830 5827 5825 5823 5820 5818 5815 5812 5810 5808 5805 5804 5802 5800 5798 5796 5795 5793 5792 5791 5789 5788 5787 5786 5785 5784 5782 5782 5781 5780 5780 5779 5779 5778 5778 5778 5778
5824 5823 5820 5818 5816 5814 5811 5809 5806 5803 5801 5799 5796 5794 5792 5791 5789 5788 5787 5785 5784 5782 5781 5780 5778 5777 5776 5775 5774 5773 5772 5772 5771 5771 5771 5771 5771 5770
5817 5815 5813 5811 5809 5806 5804 5802 5799 5797 5794 5792 5790 5788 5786 5784 5782 5781 5779 5778 5777 5776 5774 5772 5771 5770 5769 5767 5766 5765 5764 5763 5763 5763 5763 5763 5762 5762
5810 5808 5806 5804 5801 5799 5797 5795 5793 5790 5788 5785 5783 5781 5779 5776 5775 5773 5772 5771 5770 5768 5767 5765 5764 5762 5761 5760 5758 5757 5756 5755 5755 5755 5754 5754 5754 5754
5802 5800 5798 5796 5794 5793 5791 5789 5786 5784 5781 5779 5776 5774 5772 5769 5767 5766 5764 5763 5762 5761 5759 5758 5756 5755 5753 5752 5750 5749 5747 5747 5746 5746 5746 5746 5745 5745
5795 5793 5791 5789 5787 5786 5784 5782 5780 5778 5775 5772 5770 5767 5765 5762 5760 5758 5757 5755 5754 5753 5752 5750 5749 5747 5745 5743 5742 5741 5739 5738 5738 5738 5737 5737 5737 5737
5789 5786 5784 5783 5781 5779 5778 5776 5773 5771 5768 5766 5763 5760 5757 5755 5753 5751 5750 5748 5747 5745 5744 5742 5741 5739 5738 5736 5734 5733 5732 5731 5730 5729 5729 5728 5728 5727
5782 5780 5778 5776 5774 5772 5771 5769 5766 5764 5761 5758 5755 5753 5750 5748 5745 5744 5742 5741 5739 5738 5736 5735 5733 5731 5730 5729 5727 5725 5723 5723 5721 5720 5720 5719 5719 5718
5775 5773 5771 5769 5767 5765 5763 5761 5759 5756 5754 5751 5748 5745 5743 5740 5738 5736 5734 5733 5731 5730 5728 5727 5725 5724 5722 5721 5719 5717 5715 5714 5713 5711 5710 5709 5709 5708
5768 5766 5764 5761 5760 5758 5756 5754 5752 5749 5747 5744 5741 5738 5736 5733 5730 5729 5727 5725 5724 5722 5721 5719 5717 5716 5715 5713 5711 5709 5707 5706 5704 5703 5701 5700 5699 5698
5760 5758 5756 5754 5752 5750 5748 5747 5744 5742 5739 5737 5734 5731 5728 5726 5723 5721 5719 5718 5716 5714 5713 5711 5709 5708 5706 5705 5704 5702 5699 5697 5696 5694 5692 5690 5690 5689
5752 5750 5748 5747 5745 5743 5741 5739 5737 5734 5732 5729 5726 5724 5721 5719 5716 5714 5712 5710 5708 5706 5704 5703 5701 5700 5698 5697 5695 5693 5691 5689 5687 5685 5684 5682 5682 5681
5745 5743 5741 5739 5738 5736 5734 5732 5730 5727 5724 5722 5719 5716 5713 5711 5708 5706 5704 5702 5700 5698 5697 5695 5693 5691 5690 5688 5686 5685 5683 5681 5679 5677 5676 5675 5674 5674
5738 5736 5734 5732 5731 5729 5727 5725 5722 5719 5716 5714 5711 5708 5705 5703 5701 5698 5696 5694 5692 5690 5688 5686 5685 5683 5681 5680 5678 5676 5674 5673 5671 5670 5668 5667 5667 5666